Regional Weather Roundup
Issued by NWS San Diego, CA

Home | Current Version | Previous Version | Text Only | Print | Product List | Glossary On
Versions: 1 2 3 4 5 6 7 8 9 10 11 12 13 14 15 16 17 18 19 20 21 22 23 24 25 26 27 28 29 30 31 32 33 34 35 36 37 38 39 40 41 42 43 44 45 46 47 48 49 50
000
ASUS46 KSGX 210111
RWRSGX

SAN DIEGO HOURLY WEATHER ROUNDUP
NATIONAL WEATHER SERVICE SAN DIEGO CA
500 PM PST SAT JAN 20 2018

NOTE: "FAIR" INDICATES FEW OR NO CLOUDS BELOW 12,000 FEET WITH NO
SIGNIFICANT WEATHER AND/OR OBSTRUCTIONS TO VISIBILITY.

CAZ042-043-060-061-PZZ750-775-210200-

GREATER SAN DIEGO AREA

CITY           SKY/WX    TMP DP  RH WIND       PRES   REMARKS
SAN DIEGO AP   PTCLDY    59  42  53 W13       30.10R
NATIONAL CITY    N/A     58  44  58 W2        30.11R
CHULA VISTA      N/A     59  45  60 W7        30.01R
IMPERIAL BEACH PTCLDY    59  41  51 W13       30.10R
BROWN FIELD    PTCLDY    56  40  55 W6        30.08R
MIRAMAR MCAS   PTCLDY    59  41  51 W12       30.07R
MONTGOMERY FLD PTCLDY    57  41  55 W9        30.08R
GILLESPIE FLD  PTCLDY    57  36  44 W10       30.08

$$

NORTH SAN DIEGO COUNTY

CITY           SKY/WX    TMP DP  RH WIND       PRES   REMARKS
CAMP PENDLETON PTCLDY    57  37  47 NW12G18   30.06R
OCEANSIDE AP   PTCLDY    58  40  51 W12       30.06R
OCEANSIDE HBR    N/A     58  45  60 W16       30.09R
VISTA            N/A     57  40  54 W1        30.04R
CARLSBAD       PTCLDY    57  39  51 VRB7      30.06R
DEL MAR          N/A     57  45  63 CALM      30.09R
LA JOLLA SCRIP   N/A     57  46  65 W3        30.07R
FALLBROOK        N/A     56  41  56 SW2       30.05R
ESCONDIDO        N/A     56  40  55 W10       30.08R
SAN MARCOS       N/A     57  40  53 NW6       30.10R
POWAY            N/A     56  40  56 CALM      30.10R

$$

EAST SAN DIEGO COUNTY

CITY           SKY/WX    TMP DP  RH WIND       PRES   REMARKS
RAMONA         PTCLDY    50  36  58 W8        30.06R
SANTEE LAKES     N/A     56  41  56 CALM      30.08R
LA MESA          N/A     55  38  53 W3        30.02R
JAMUL            N/A     52  37  55 CALM      30.09R
MT. LAGUNA OBS   N/A     28  28  96 SW12      30.07R WCI  18
CAMPO            N/A     45  34  65 W9        30.01R

$$

ORANGE COUNTY AND THE LOS ANGELES BASIN

CITY           SKY/WX    TMP DP  RH WIND       PRES   REMARKS
JOHN WAYNE AP  PTCLDY    60  37  42 W9        30.05R
LAGUNA BEACH     N/A     59  43  54 CALM      30.01R
LAKE FOREST FR   N/A     56  32  40 W3        29.95R
HUNTINGTON BCH   N/A     59  39  47 W8        30.07R
LOS ALAMITOS   FAIR      59  35  41 W13       30.05R
FULLERTON      CLEAR     59  36  42 W12       30.04R
LONG BEACH     CLEAR     61  36  39 W16       30.05R
L.A. AP        PTCLDY    60  41  49 NW16      30.07R
L.A. DOWNTOWN  PTCLDY    60  21  22 VRB6      30.05R

$$

THE INLAND EMPIRE

CITY           SKY/WX    TMP DP  RH WIND       PRES   REMARKS
CORONA         PTCLDY    58  26  29 SW9       30.03R
CHINO          PTCLDY    59  24  26 W16       30.03R
ONTARIO        PTCLDY    59  18  20 W12       30.01R
SAN BERNARDINO MOCLDY    59  25  27 SW3       30.03R
RIVERSIDE AP   PTCLDY    57  25  29 W13       30.03R
MORENO VALLEY    N/A     56  36  47 CALM      28.15R
MARCH ARB      PTCLDY    54  23  30 W8        30.02R
HORSETHIEF CYN   N/A     54  19  25 CALM      30.05R
PERRIS           N/A     56  33  41 NW6       29.96R
HEMET EAST       N/A     54  25  32 CALM      30.10R
FRENCH VALLEY  FAIR      55  27  33 W8        30.03R
TEMECULA         N/A     57  38  49 SW5       30.06R

$$

SAN BERNARDINO AND RIVERSIDE COUNTY MOUNTAINS

CITY           SKY/WX    TMP DP  RH WIND       PRES   REMARKS
BIG BEAR AP    PTCLDY    27  18  69 W12G21    29.97S WCI  16

$$

SOUTHERN DESERT INCLUDING THE COACHELLA VALLEY

CITY           SKY/WX    TMP DP  RH WIND       PRES   REMARKS
PALM SPRINGS   PTCLDY    62  23  22 NW21G28   29.98R
THOUSAND PALMS   N/A     60  29  30 W6        29.96R
PALM DESERT      N/A     61  28  28 CALM        N/A
THERMAL        PTCLDY    64  26  23 NW8       29.96R
BLYTHE         MOCLDY    58  35  42 SE14      29.95R
IMPERIAL AP    CLEAR     60  27  28 W16       29.98R
EL CENTRO NAS  CLEAR     61  23  23 W16       30.01R
YUMA AZ        CLEAR     60  28  29 W9        29.97R

$$

UPPER DESERT

CITY           SKY/WX    TMP DP  RH WIND       PRES   REMARKS
VICTORVILLE AP CLEAR     45  21  39 W17G29    30.05R
HESPERIA         N/A     44  25  48 NW9       30.23R
APPLE VALLEY     N/A     45  24  44 NE10      30.12R
PALMDALE       PTCLDY    44  25  47 NW20G31   30.08R
LANCASTER      CLEAR     44  23  43 NW17G26   30.08R
EDWARDS AFB    PTCLDY    44  23  43 W15G25    30.04R
DAGGETT        PTCLDY    50  26  39 W20G29    30.02R
29 PALMS N     PTCLDY    51  20  29 W29G36    30.05R
NEEDLES        MOCLDY    61  24  24 NW14      29.92R

$$

REGIONAL REPORTS

CITY           SKY/WX    TMP DP  RH WIND       PRES   REMARKS
SANTA BARBARA  CLEAR     58  34  40 NW13      30.10R
SANDBERG       CLOUDY    35  29  78 VRB5      30.10R WCI  31
LAS VEGAS NV   MOCLDY    49  25  39 NW13G23   29.94R
PHOENIX AZ     MOCLDY    58  32  37 SW8       29.89R
ENSENADA NW      N/A     58  32  37 CALM      30.04R

$$

OFFSHORE ISLANDS

CITY           SKY/WX    TMP DP  RH WIND       PRES   REMARKS
CATALINA ARPT    N/A     51  38  60 NW18      30.07R
SAN NICOLAS IS CLEAR     54  49  83 NW26G40   30.12R

$$

MARINE AND OFFSHORE BUOY REPORTS

STATION/POSITION SKY/WX   TEMP    WIND        PRES    VSBY  SWELL
                          AIR SEA DIR/SP/G                  HT/PER/DIR
                          (F)     (DEG/KT/KT) (MB)    (MI)  (FT/S/D)
TANNER BANKS               57 59              1019.9
S CLEMENTE BASIN           58 61  300/ 21/ 25 1018.3          7/300/14
SAN NICOLAS IS.               58                N/A          10/290/13
SO. S. ROSA ISLA           55 57  320/ 25/ 31 1020.5R        10/300/13
W. S. BARBARA CH           55 58  320/ 21/ 27 1020.9R        10/290/14
M. S. BARBARA CH           57 60  280/ 21/ 25 1020.5R         7/270/14
S. MONICA BASIN               60  300/ 23/ 29 1018.1F         5/270/11
S PEDRO CHANNEL               60                N/A           3/270/14
CMP PENDLETON NS              60                N/A           3/240/15
OCEANSIDE OFFSHR              61                N/A           3/250/13
TORREY PINES OTR              61                N/A           3/280/14
SAN DIEGO BAY                 64              1019.3R
POINT LOMA SOUTH              61                N/A           7/280/13

$$




USA.gov is the U.S. government's official web portal to all federal, state and local government web resources and services.